| time (UTC) | temp C | wind direction | speed KPH | gust KPH | rain 1hr cm | rain 24hr cm | rain mn cm | humidity % | barometer mb |
| 20260507085943 | 15 | 286 | 0.0 | 1.6 | 0.03 | 0.05 | 0.05 | 77 | 1017.1 |
| 20260507085442 | 15 | 287 | 0.0 | 1.6 | 0.03 | 0.05 | 0.05 | 78 | 1017.0 |
| 20260507084942 | 15 | 287 | 0.0 | 1.6 | 0.03 | 0.05 | 0.05 | 78 | 1017.0 |
| 20260507083942 | 15 | 287 | 0.0 | 1.6 | 0.00 | 0.03 | 0.03 | 78 | 1017.1 |
| 20260507082945 | 15 | 287 | 0.0 | 3.2 | 0.00 | 0.03 | 0.03 | 78 | 1017.2 |
| 20260507082439 | 15 | 307 | 1.6 | 4.8 | 0.00 | 0.03 | 0.03 | 78 | 1017.2 |
| 20260507081938 | 15 | 287 | 1.6 | 8.0 | 0.00 | 0.03 | 0.03 | 77 | 1017.2 |
| 20260507081438 | 15 | 288 | 1.6 | 8.0 | 0.00 | 0.03 | 0.03 | 76 | 1017.1 |
| 20260507080938 | 15 | 325 | 0.0 | 4.8 | 0.03 | 0.03 | 0.03 | 77 | 1017.1 |
| 20260507075940 | 14 | 310 | 1.6 | 4.8 | 0.03 | 0.03 | 0.03 | 77 | 1017.1 |
| 20260507075440 | 14 | 319 | 1.6 | 4.8 | 0.03 | 0.03 | 0.03 | 76 | 1017.1 |
| 20260507074442 | 14 | 298 | 0.0 | 3.2 | 0.03 | 0.03 | 0.03 | 77 | 1017.0 |
| 20260507073940 | 14 | 309 | 0.0 | 4.8 | 0.03 | 0.03 | 0.03 | 78 | 1016.9 |
| 20260507072940 | 13 | 308 | 1.6 | 8.0 | 0.03 | 0.03 | 0.03 | 76 | 1016.9 |
| 20260507072438 | 13 | 313 | 1.6 | 9.7 | 0.03 | 0.03 | 0.03 | 76 | 1016.8 |
| 20260507071938 | 13 | 321 | 1.6 | 9.7 | 0.03 | 0.03 | 0.03 | 76 | 1016.8 |
| 20260507071439 | 13 | 333 | 1.6 | 9.7 | 0.03 | 0.03 | 0.03 | 76 | 1016.8 |
| 20260507070938 | 13 | 297 | 1.6 | 9.7 | 0.00 | 0.00 | 0.00 | 75 | 1016.8 |
| 20260507070438 | 13 | 29 | 3.2 | 9.7 | 0.00 | 0.00 | 0.00 | 73 | 1016.7 |
| 20260507065936 | 14 | 345 | 3.2 | 9.7 | 0.00 | 0.00 | 0.00 | 73 | 1016.7 |
| 20260507065433 | 14 | 344 | 1.6 | 8.0 | 0.00 | 0.00 | 0.00 | 73 | 1016.7 |
| 20260507064933 | 14 | 48 | 0.0 | 4.8 | 0.00 | 0.00 | 0.00 | 73 | 1016.7 |
| 20260507064427 | 14 | 33 | 0.0 | 3.2 | 0.00 | 0.00 | 0.00 | 73 | 1016.7 |
| 20260507063415 | 14 | 351 | 0.0 | 4.8 | 0.00 | 0.00 | 0.00 | 72 | 1016.6 |
| 20260507062909 | 14 | 24 | 0.0 | 1.6 | 0.00 | 0.00 | 0.00 | 73 | 1016.6 |
| 20260507062405 | 14 | 22 | 0.0 | 3.2 | 0.00 | 0.00 | 0.00 | 72 | 1016.6 |
| 20260507061857 | 14 | 314 | 0.0 | 3.2 | 0.00 | 0.00 | 0.00 | 71 | 1016.6 |
| 20260507060846 | 14 | 314 | 0.0 | 4.8 | 0.00 | 0.00 | 0.00 | 70 | 1016.6 |
| 20260507060340 | 14 | 358 | 0.0 | 1.6 | 0.00 | 0.00 | 0.00 | 70 | 1016.5 |
| 20260507055834 | 14 | 117 | 0.0 | 1.6 | 0.00 | 0.00 | 0.00 | 68 | 1016.5 |
| 20260507055330 | 14 | 139 | 0.0 | 1.6 | 0.00 | 0.00 | 0.00 | 69 | 1016.4 |
| 20260507054830 | 14 | 139 | 0.0 | 0.0 | 0.00 | 0.00 | 0.00 | 69 | 1016.2 |
| 20260507054330 | 14 | 139 | 0.0 | 1.6 | 0.00 | 0.00 | 0.00 | 70 | 1016.1 |
| 20260507053830 | 13 | 138 | 0.0 | 3.2 | 0.00 | 0.00 | 0.00 | 70 | 1016.0 |
| 20260507053330 | 14 | 138 | 0.0 | 3.2 | 0.00 | 0.00 | 0.00 | 69 | 1016.0 |
| 20260507051831 | 13 | 113 | 0.0 | 1.6 | 0.00 | 0.00 | 0.00 | 72 | 1015.8 |
| 20260507051344 | 13 | 113 | 0.0 | 1.6 | 0.00 | 0.00 | 0.00 | 72 | 1015.7 |
| 20260507050330 | 13 | 113 | 0.0 | 1.6 | 0.00 | 0.00 | 0.00 | 74 | 1015.7 |
| 20260507045832 | 13 | 113 | 0.0 | 1.6 | 0.00 | 0.00 | 0.00 | 74 | 1015.6 |
| 20260507044332 | 12 | 113 | 0.0 | 1.6 | 0.00 | 0.00 | 0.00 | 75 | 1015.5 |
| 20260507043831 | 12 | 113 | 0.0 | 1.6 | 0.00 | 0.00 | 0.00 | 75 | 1015.3 |
| 20260507043333 | 12 | 120 | 0.0 | 1.6 | 0.00 | 0.00 | 0.00 | 76 | 1015.3 |
| 20260507042827 | 12 | 120 | 0.0 | 1.6 | 0.00 | 0.00 | 0.00 | 76 | 1015.2 |
| 20260507042321 | 12 | 120 | 0.0 | 1.6 | 0.00 | 0.00 | 0.00 | 76 | 1015.3 |
| 20260507041815 | 12 | 120 | 0.0 | 1.6 | 0.00 | 0.00 | 0.00 | 76 | 1015.3 |
| 20260507041309 | 12 | 120 | 0.0 | 1.6 | 0.00 | 0.00 | 0.00 | 76 | 1015.2 |
| 20260507040803 | 11 | 120 | 0.0 | 1.6 | 0.00 | 0.00 | 0.00 | 76 | 1015.2 |
| 20260507040257 | 11 | 120 | 0.0 | 1.6 | 0.00 | 0.00 | 0.00 | 76 | 1015.2 |
| 20260507035751 | 11 | 120 | 0.0 | 1.6 | 0.00 | 0.00 | 0.00 | 76 | 1015.1 |
| 20260507035245 | 11 | 120 | 0.0 | 1.6 | 0.00 | 0.00 | 0.00 | 76 | 1015.1 |
| 20260507034233 | 11 | 120 | 0.0 | 1.6 | 0.00 | 0.00 | 0.00 | 76 | 1015.1 |
| 20260507033726 | 11 | 120 | 0.0 | 1.6 | 0.00 | 0.00 | 0.00 | 76 | 1014.9 |
| 20260507032209 | 11 | 120 | 0.0 | 1.6 | 0.00 | 0.00 | 0.00 | 74 | 1014.8 |
| 20260507031703 | 12 | 117 | 0.0 | 1.6 | 0.00 | 0.00 | 0.00 | 73 | 1014.8 |
| 20260507031157 | 12 | 117 | 0.0 | 1.6 | 0.00 | 0.00 | 0.00 | 73 | 1014.8 |
| 20260507030145 | 12 | 117 | 0.0 | 0.0 | 0.00 | 0.00 | 0.00 | 73 | 1014.7 |
| 20260507025639 | 12 | 117 | 0.0 | 0.0 | 0.00 | 0.00 | 0.00 | 73 | 1014.7 |
| 20260507024628 | 12 | 117 | 0.0 | 1.6 | 0.00 | 0.00 | 0.00 | 73 | 1014.7 |
| 20260507023110 | 12 | 117 | 0.0 | 0.0 | 0.00 | 0.00 | 0.00 | 72 | 1014.6 |
| 20260507022602 | 12 | 117 | 0.0 | 0.0 | 0.00 | 0.00 | 0.00 | 72 | 1014.5 |
| 20260507022058 | 12 | 117 | 0.0 | 0.0 | 0.00 | 0.00 | 0.00 | 72 | 1014.6 |
| 20260507021551 | 12 | 117 | 0.0 | 1.6 | 0.00 | 0.00 | 0.00 | 71 | 1014.5 |
| 20260507021046 | 12 | 117 | 0.0 | 1.6 | 0.00 | 0.00 | 0.00 | 71 | 1014.5 |
| 20260507020033 | 12 | 117 | 0.0 | 1.6 | 0.00 | 0.00 | 0.00 | 71 | 1014.5 |
| 20260507015526 | 12 | 117 | 0.0 | 1.6 | 0.00 | 0.00 | 0.00 | 71 | 1014.5 |
| 20260507015021 | 12 | 117 | 0.0 | 1.6 | 0.00 | 0.00 | 0.00 | 71 | 1014.5 |
| 20260507014528 | 12 | 117 | 0.0 | 0.0 | 0.00 | 0.00 | 0.00 | 71 | 1014.5 |
| 20260507014010 | 12 | 117 | 0.0 | 1.6 | 0.00 | 0.00 | 0.00 | 71 | 1014.4 |
| 20260507013504 | 12 | 117 | 0.0 | 1.6 | 0.00 | 0.00 | 0.00 | 71 | 1014.4 |
| 20260507012956 | 12 | 116 | 0.0 | 1.6 | 0.00 | 0.00 | 0.00 | 71 | 1014.2 |
| 20260507012452 | 12 | 117 | 0.0 | 3.2 | 0.00 | 0.00 | 0.00 | 71 | 1014.1 |
| 20260507011946 | 12 | 117 | 0.0 | 3.2 | 0.00 | 0.00 | 0.00 | 71 | 1014.1 |
| 20260507010933 | 12 | 79 | 0.0 | 0.0 | 0.00 | 0.00 | 0.00 | 72 | 1014.2 |
| 20260507010427 | 12 | 79 | 0.0 | 0.0 | 0.00 | 0.00 | 0.00 | 72 | 1014.2 |
| 20260507005415 | 12 | 79 | 0.0 | 1.6 | 0.00 | 0.00 | 0.00 | 72 | 1014.0 |
| 20260507004910 | 12 | 79 | 0.0 | 1.6 | 0.00 | 0.00 | 0.00 | 72 | 1014.0 |
| 20260507004404 | 12 | 79 | 0.0 | 1.6 | 0.00 | 0.00 | 0.00 | 72 | 1014.0 |
| 20260507002845 | 11 | 79 | 0.0 | 1.6 | 0.00 | 0.00 | 0.00 | 73 | 1013.9 |
| 20260507002338 | 11 | 79 | 1.6 | 6.4 | 0.00 | 0.00 | 0.00 | 73 | 1013.8 |
| 20260507001833 | 11 | 79 | 3.2 | 9.7 | 0.00 | 0.00 | 0.00 | 73 | 1013.8 |
| 20260507001328 | 11 | 72 | 0.0 | 9.7 | 0.00 | 0.00 | 0.00 | 72 | 1013.8 |
| 20260507000828 | 11 | 272 | 0.0 | 1.6 | 0.00 | 0.00 | 0.00 | 73 | 1013.9 |
| 20260507000328 | 11 | 273 | 0.0 | 1.6 | 0.00 | 0.00 | 0.00 | 73 | 1014.0 |
| 20260506235830 | 11 | 272 | 0.0 | 1.6 | 0.00 | 0.00 | 0.00 | 72 | 1014.0 |
| 20260506235325 | 11 | 273 | 0.0 | 0.0 | 0.00 | 0.00 | 0.00 | 71 | 1014.0 |
| 20260506234838 | 12 | 272 | 0.0 | 0.0 | 0.00 | 0.00 | 0.00 | 71 | 1014.0 |
| 20260506234325 | 12 | 273 | 0.0 | 1.6 | 0.00 | 0.00 | 0.00 | 71 | 1014.0 |
| 20260506233826 | 12 | 273 | 0.0 | 1.6 | 0.00 | 0.00 | 0.00 | 71 | 1014.0 |
| 20260506233322 | 12 | 272 | 0.0 | 1.6 | 0.00 | 0.00 | 0.00 | 71 | 1014.0 |
| 20260506232819 | 12 | 273 | 0.0 | 1.6 | 0.00 | 0.00 | 0.00 | 70 | 1014.1 |
| 20260506232320 | 12 | 273 | 0.0 | 1.6 | 0.00 | 0.00 | 0.00 | 70 | 1014.1 |
| 20260506231820 | 12 | 273 | 0.0 | 1.6 | 0.00 | 0.00 | 0.00 | 70 | 1014.1 |
| 20260506231334 | 12 | 273 | 0.0 | 1.6 | 0.00 | 0.00 | 0.00 | 70 | 1014.0 |
| 20260506230819 | 12 | 273 | 0.0 | 1.6 | 0.00 | 0.00 | 0.00 | 69 | 1014.0 |
| 20260506230319 | 12 | 273 | 0.0 | 1.6 | 0.00 | 0.00 | 0.00 | 68 | 1014.0 |
| 20260506225321 | 13 | 273 | 0.0 | 1.6 | 0.00 | 0.00 | 0.00 | 68 | 1014.0 |
| 20260506224817 | 13 | 273 | 0.0 | 1.6 | 0.00 | 0.00 | 0.00 | 67 | 1014.0 |
| 20260506224318 | 13 | 273 | 0.0 | 0.0 | 0.00 | 0.00 | 0.00 | 67 | 1014.0 |
| 20260506223830 | 13 | 273 | 0.0 | 0.0 | 0.00 | 0.00 | 0.00 | 68 | 1013.9 |
| 20260506223319 | 13 | 273 | 0.0 | 1.6 | 0.00 | 0.00 | 0.00 | 67 | 1013.9 |
| 20260506222316 | 13 | 243 | 0.0 | 0.0 | 0.00 | 0.00 | 0.00 | 66 | 1013.9 |
| 20260506221820 | 13 | 244 | 0.0 | 0.0 | 0.00 | 0.00 | 0.00 | 65 | 1013.9 |
| 20260506215818 | 14 | 245 | 0.0 | 1.6 | 0.00 | 0.00 | 0.00 | 63 | 1013.8 |
| 20260506215317 | 14 | 244 | 0.0 | 1.6 | 0.00 | 0.00 | 0.00 | 63 | 1013.9 |
| 20260506214819 | 14 | 243 | 0.0 | 1.6 | 0.00 | 0.00 | 0.00 | 63 | 1013.8 |
| 20260506214314 | 14 | 243 | 0.0 | 1.6 | 0.00 | 0.00 | 0.00 | 63 | 1013.7 |
| 20260506213811 | 14 | 273 | 0.0 | 1.6 | 0.00 | 0.00 | 0.00 | 62 | 1013.7 |
| 20260506213311 | 14 | 273 | 0.0 | 1.6 | 0.00 | 0.00 | 0.00 | 62 | 1013.6 |
| 20260506212307 | 15 | 273 | 0.0 | 3.2 | 0.00 | 0.00 | 0.00 | 61 | 1013.6 |
| 20260506211809 | 15 | 273 | 0.0 | 3.2 | 0.00 | 0.00 | 0.00 | 60 | 1013.6 |
| 20260506211310 | 15 | 273 | 0.0 | 1.6 | 0.00 | 0.00 | 0.00 | 59 | 1013.6 |
| 20260506210805 | 15 | 273 | 0.0 | 3.2 | 0.00 | 0.00 | 0.00 | 58 | 1013.6 |
| 20260506210303 | 15 | 271 | 0.0 | 4.8 | 0.00 | 0.00 | 0.00 | 58 | 1013.6 |
| 20260506205804 | 15 | 247 | 0.0 | 4.8 | 0.00 | 0.00 | 0.00 | 57 | 1013.6 |
| 20260506204801 | 16 | 273 | 0.0 | 1.6 | 0.00 | 0.00 | 0.00 | 57 | 1013.6 |
| 20260506203758 | 16 | 272 | 0.0 | 1.6 | 0.00 | 0.00 | 0.00 | 56 | 1013.6 |
| 20260506203300 | 16 | 273 | 0.0 | 1.6 | 0.00 | 0.00 | 0.00 | 56 | 1013.6 |
| 20260506202758 | 16 | 273 | 0.0 | 1.6 | 0.00 | 0.00 | 0.00 | 55 | 1013.6 |
| 20260506202258 | 16 | 273 | 0.0 | 6.4 | 0.00 | 0.00 | 0.00 | 54 | 1013.6 |
| 20260506201755 | 16 | 273 | 1.6 | 6.4 | 0.00 | 0.00 | 0.00 | 53 | 1013.5 |
| 20260506201254 | 16 | 273 | 1.6 | 9.7 | 0.00 | 0.00 | 0.00 | 53 | 1013.5 |
| 20260506200756 | 17 | 273 | 0.0 | 9.7 | 0.00 | 0.00 | 0.00 | 53 | 1013.5 |
| 20260506200256 | 17 | 273 | 0.0 | 6.4 | 0.00 | 0.00 | 0.00 | 53 | 1013.6 |
| 20260506195752 | 17 | 273 | 0.0 | 4.8 | 0.00 | 0.00 | 0.00 | 53 | 1013.5 |
| 20260506195253 | 17 | 273 | 1.6 | 8.0 | 0.00 | 0.00 | 0.00 | 52 | 1013.5 |
| 20260506194752 | 17 | 273 | 1.6 | 8.0 | 0.00 | 0.00 | 0.00 | 52 | 1013.3 |
| 20260506194252 | 17 | 273 | 1.6 | 8.0 | 0.00 | 0.00 | 0.00 | 52 | 1013.4 |
| 20260506193747 | 17 | 273 | 1.6 | 8.0 | 0.00 | 0.00 | 0.00 | 52 | 1013.4 |
| 20260506193302 | 17 | 273 | 1.6 | 8.0 | 0.00 | 0.00 | 0.00 | 51 | 1013.3 |
| 20260506192244 | 17 | 273 | 0.0 | 4.8 | 0.00 | 0.00 | 0.00 | 51 | 1013.4 |
| 20260506191749 | 17 | 273 | 0.0 | 4.8 | 0.00 | 0.00 | 0.00 | 50 | 1013.4 |
| 20260506190234 | 17 | 272 | 1.6 | 6.4 | 0.00 | 0.00 | 0.00 | 49 | 1013.3 |
| 20260506185223 | 18 | 273 | 1.6 | 9.7 | 0.00 | 0.00 | 0.00 | 48 | 1013.1 |
| 20260506184717 | 18 | 273 | 0.0 | 6.4 | 0.00 | 0.00 | 0.00 | 48 | 1013.1 |
| 20260506183704 | 18 | 272 | 0.0 | 1.6 | 0.00 | 0.00 | 0.00 | 47 | 1013.0 |
| 20260506183159 | 18 | 273 | 0.0 | 1.6 | 0.00 | 0.00 | 0.00 | 47 | 1012.9 |
| 20260506182653 | 18 | 273 | 0.0 | 1.6 | 0.00 | 0.00 | 0.00 | 46 | 1012.8 |
| 20260506182146 | 18 | 273 | 0.0 | 3.2 | 0.00 | 0.00 | 0.00 | 46 | 1012.7 |
| 20260506181641 | 18 | 252 | 1.6 | 6.4 | 0.00 | 0.00 | 0.00 | 46 | 1012.7 |
| 20260506181134 | 18 | 11 | 1.6 | 9.7 | 0.00 | 0.00 | 0.00 | 47 | 1012.5 |
| 20260506180122 | 18 | 299 | 1.6 | 11.3 | 0.00 | 0.00 | 0.00 | 47 | 1012.2 |
| 20260506175616 | 18 | 300 | 1.6 | 6.4 | 0.00 | 0.00 | 0.00 | 48 | 1012.2 |
| 20260506175111 | 18 | 300 | 1.6 | 8.0 | 0.00 | 0.00 | 0.00 | 47 | 1012.2 |
| 20260506174604 | 18 | 50 | 3.2 | 9.7 | 0.00 | 0.00 | 0.00 | 47 | 1012.0 |
| 20260506173552 | 19 | 48 | 6.4 | 12.9 | 0.00 | 0.00 | 0.00 | 47 | 1011.9 |
| 20260506172540 | 19 | 8 | 4.8 | 19.3 | 0.00 | 0.00 | 0.00 | 47 | 1011.8 |
| 20260506172034 | 20 | 30 | 4.8 | 19.3 | 0.00 | 0.00 | 0.00 | 46 | 1011.7 |
| 20260506171528 | 20 | 50 | 4.8 | 14.5 | 0.00 | 0.00 | 0.00 | 46 | 1011.6 |
| 20260506170521 | 20 | 53 | 3.2 | 12.9 | 0.00 | 0.00 | 0.00 | 45 | 1011.5 |
| 20260506170011 | 20 | 34 | 6.4 | 17.7 | 0.00 | 0.00 | 0.00 | 45 | 1011.4 |
| 20260506164958 | 21 | 53 | 6.4 | 19.3 | 0.00 | 0.00 | 0.00 | 44 | 1011.3 |
| 20260506164452 | 21 | 41 | 4.8 | 16.1 | 0.00 | 0.00 | 0.00 | 43 | 1011.2 |
| 20260506163947 | 21 | 50 | 4.8 | 12.9 | 0.00 | 0.00 | 0.00 | 42 | 1011.3 |
| 20260506163441 | 21 | 288 | 8.0 | 19.3 | 0.00 | 0.00 | 0.00 | 41 | 1011.2 |
| 20260506162934 | 22 | 288 | 9.7 | 20.9 | 0.00 | 0.00 | 0.00 | 40 | 1011.2 |
| 20260506162429 | 23 | 287 | 6.4 | 20.9 | 0.00 | 0.00 | 0.00 | 37 | 1011.2 |
| 20260506161923 | 23 | 287 | 3.2 | 11.3 | 0.00 | 0.00 | 0.00 | 35 | 1011.1 |
| 20260506161418 | 24 | 287 | 4.8 | 11.3 | 0.00 | 0.00 | 0.00 | 35 | 1011.1 |
| 20260506160916 | 24 | 287 | 4.8 | 12.9 | 0.00 | 0.00 | 0.00 | 35 | 1011.1 |
| 20260506160407 | 24 | 287 | 4.8 | 12.9 | 0.00 | 0.00 | 0.00 | 34 | 1011.1 |
| 20260506154846 | 24 | 287 | 4.8 | 12.9 | 0.00 | 0.00 | 0.00 | 33 | 1011.2 |
| 20260506154346 | 24 | 287 | 4.8 | 11.3 | 0.00 | 0.00 | 0.00 | 33 | 1011.2 |
| 20260506153329 | 25 | 287 | 3.2 | 11.3 | 0.00 | 0.00 | 0.00 | 32 | 1011.2 |
| 20260506152822 | 25 | 287 | 3.2 | 9.7 | 0.00 | 0.00 | 0.00 | 30 | 1011.2 |
| 20260506152317 | 26 | 287 | 3.2 | 9.7 | 0.00 | 0.00 | 0.00 | 27 | 1011.2 |
| 20260506151810 | 26 | 286 | 3.2 | 8.0 | 0.00 | 0.00 | 0.00 | 27 | 1011.2 |
| 20260506151305 | 26 | 280 | 1.6 | 8.0 | 0.00 | 0.00 | 0.00 | 27 | 1011.2 |
| 20260506150758 | 26 | 274 | 1.6 | 8.0 | 0.00 | 0.00 | 0.00 | 27 | 1011.3 |
| 20260506150304 | 26 | 254 | 3.2 | 9.7 | 0.00 | 0.00 | 0.00 | 27 | 1011.3 |
| 20260506145747 | 26 | 236 | 3.2 | 9.7 | 0.00 | 0.00 | 0.00 | 27 | 1011.4 |
| 20260506145247 | 26 | 273 | 3.2 | 8.0 | 0.00 | 0.00 | 0.00 | 28 | 1011.4 |
| 20260506144746 | 26 | 266 | 3.2 | 9.7 | 0.00 | 0.00 | 0.00 | 27 | 1011.4 |
| 20260506144248 | 26 | 243 | 3.2 | 12.9 | 0.00 | 0.00 | 0.00 | 27 | 1011.4 |
| 20260506143747 | 26 | 240 | 1.6 | 12.9 | 0.00 | 0.00 | 0.00 | 28 | 1011.4 |
| 20260506143247 | 26 | 236 | 1.6 | 8.0 | 0.00 | 0.00 | 0.00 | 29 | 1011.4 |
| 20260506142747 | 26 | 261 | 3.2 | 11.3 | 0.00 | 0.00 | 0.00 | 28 | 1011.4 |
| 20260506142246 | 26 | 276 | 3.2 | 14.5 | 0.00 | 0.00 | 0.00 | 28 | 1011.5 |
| 20260506141747 | 26 | 278 | 3.2 | 14.5 | 0.00 | 0.00 | 0.00 | 28 | 1011.5 |
| 20260506141246 | 26 | 278 | 1.6 | 11.3 | 0.00 | 0.00 | 0.00 | 28 | 1011.4 |
| 20260506140244 | 26 | 312 | 4.8 | 16.1 | 0.00 | 0.00 | 0.00 | 29 | 1011.5 |
| 20260506135747 | 26 | 269 | 4.8 | 16.1 | 0.00 | 0.00 | 0.00 | 29 | 1011.6 |
| 20260506135245 | 25 | 262 | 3.2 | 9.7 | 0.00 | 0.00 | 0.00 | 29 | 1011.6 |
| 20260506134747 | 25 | 312 | 3.2 | 12.9 | 0.00 | 0.00 | 0.00 | 29 | 1011.5 |
| 20260506134248 | 26 | 262 | 4.8 | 16.1 | 0.00 | 0.00 | 0.00 | 29 | 1011.6 |
| 20260506133749 | 25 | 339 | 6.4 | 16.1 | 0.00 | 0.00 | 0.00 | 29 | 1011.7 |
| 20260506132736 | 26 | 262 | 4.8 | 11.3 | 0.00 | 0.00 | 0.00 | 29 | 1011.7 |
| 20260506132233 | 25 | 307 | 4.8 | 16.1 | 0.00 | 0.00 | 0.00 | 29 | 1011.8 |
| 20260506131735 | 26 | 271 | 4.8 | 16.1 | 0.00 | 0.00 | 0.00 | 28 | 1011.9 |
| 20260506131232 | 26 | 302 | 6.4 | 14.5 | 0.00 | 0.00 | 0.00 | 28 | 1012.0 |
| 20260506130730 | 26 | 261 | 4.8 | 14.5 | 0.00 | 0.00 | 0.00 | 28 | 1012.0 |
| 20260506130230 | 26 | 297 | 3.2 | 14.5 | 0.00 | 0.00 | 0.00 | 28 | 1012.0 |
| 20260506125732 | 26 | 281 | 3.2 | 12.9 | 0.00 | 0.00 | 0.00 | 28 | 1012.1 |
| 20260506124730 | 25 | 314 | 3.2 | 14.5 | 0.00 | 0.00 | 0.00 | 30 | 1012.2 |
| 20260506124230 | 24 | 124 | 3.2 | 11.3 | 0.00 | 0.00 | 0.00 | 31 | 1012.2 |
| 20260506123230 | 25 | 127 | 3.2 | 11.3 | 0.00 | 0.00 | 0.00 | 30 | 1012.4 |
| 20260506122733 | 25 | 347 | 3.2 | 9.7 | 0.00 | 0.00 | 0.00 | 30 | 1012.4 |
| 20260506121730 | 25 | 57 | 6.4 | 17.7 | 0.00 | 0.00 | 0.00 | 30 | 1012.5 |
| 20260506121237 | 25 | 290 | 4.8 | 17.7 | 0.00 | 0.00 | 0.00 | 29 | 1012.5 |
| 20260506120731 | 26 | 284 | 3.2 | 11.3 | 0.00 | 0.00 | 0.00 | 29 | 1012.6 |
| 20260506120231 | 26 | 278 | 3.2 | 11.3 | 0.00 | 0.00 | 0.00 | 29 | 1012.6 |
| 20260506114743 | 25 | 264 | 3.2 | 11.3 | 0.00 | 0.00 | 0.00 | 29 | 1012.7 |
| 20260506114228 | 25 | 322 | 3.2 | 12.9 | 0.00 | 0.00 | 0.00 | 30 | 1012.8 |
| 20260506113231 | 25 | 251 | 1.6 | 9.7 | 0.00 | 0.00 | 0.00 | 32 | 1012.8 |
| 20260506112733 | 24 | 319 | 3.2 | 9.7 | 0.00 | 0.00 | 0.00 | 31 | 1012.9 |
| 20260506112231 | 24 | 265 | 4.8 | 12.9 | 0.00 | 0.00 | 0.00 | 31 | 1012.9 |
| 20260506111743 | 24 | 264 | 3.2 | 12.9 | 0.00 | 0.00 | 0.00 | 31 | 1013.0 |
| 20260506111228 | 24 | 264 | 3.2 | 8.0 | 0.00 | 0.00 | 0.00 | 31 | 1013.0 |
| 20260506110229 | 24 | 322 | 3.2 | 11.3 | 0.00 | 0.00 | 0.00 | 31 | 1013.2 |
| 20260506105729 | 24 | 312 | 3.2 | 12.9 | 0.00 | 0.00 | 0.00 | 32 | 1013.2 |
| 20260506105228 | 24 | 287 | 4.8 | 12.9 | 0.00 | 0.00 | 0.00 | 31 | 1013.3 |
| 20260506104728 | 23 | 270 | 3.2 | 9.7 | 0.00 | 0.00 | 0.00 | 31 | 1013.3 |
| 20260506104229 | 24 | 329 | 1.6 | 11.3 | 0.00 | 0.00 | 0.00 | 31 | 1013.4 |
| 20260506103730 | 24 | 293 | 3.2 | 11.3 | 0.00 | 0.00 | 0.00 | 31 | 1013.4 |
| 20260506102726 | 23 | 225 | 3.2 | 11.3 | 0.00 | 0.00 | 0.00 | 31 | 1013.5 |
| 20260506102227 | 23 | 262 | 1.6 | 11.3 | 0.00 | 0.00 | 0.00 | 31 | 1013.5 |
| 20260506101725 | 23 | 293 | 3.2 | 8.0 | 0.00 | 0.00 | 0.00 | 31 | 1013.6 |
| 20260506101224 | 23 | 228 | 4.8 | 14.5 | 0.00 | 0.00 | 0.00 | 32 | 1013.6 |
| 20260506100724 | 23 | 293 | 3.2 | 14.5 | 0.00 | 0.00 | 0.00 | 32 | 1013.7 |
| 20260506100236 | 23 | 290 | 1.6 | 9.7 | 0.00 | 0.00 | 0.00 | 31 | 1013.7 |
| 20260506095725 | 23 | 291 | 1.6 | 9.7 | 0.00 | 0.00 | 0.00 | 30 | 1013.8 |
| 20260506095227 | 23 | 239 | 3.2 | 9.7 | 0.00 | 0.00 | 0.00 | 31 | 1013.8 |
| 20260506094723 | 23 | 290 | 3.2 | 9.7 | 0.00 | 0.00 | 0.00 | 32 | 1013.9 |
| 20260506094222 | 23 | 262 | 3.2 | 8.0 | 0.00 | 0.00 | 0.00 | 31 | 1013.9 |
| 20260506093722 | 22 | 259 | 3.2 | 8.0 | 0.00 | 0.00 | 0.00 | 33 | 1014.0 |
| 20260506093221 | 23 | 285 | 1.6 | 8.0 | 0.00 | 0.00 | 0.00 | 31 | 1014.0 |
| 20260506092723 | 23 | 277 | 1.6 | 8.0 | 0.00 | 0.00 | 0.00 | 30 | 1014.1 |
| 20260506092222 | 23 | 214 | 1.6 | 6.4 | 0.00 | 0.00 | 0.00 | 32 | 1014.1 |
| 20260506091721 | 23 | 338 | 1.6 | 6.4 | 0.00 | 0.00 | 0.00 | 32 | 1014.1 |
| 20260506091223 | 22 | 56 | 1.6 | 6.4 | 0.00 | 0.00 | 0.00 | 34 | 1014.2 |
| 20260506090723 | 22 | 251 | 0.0 | 6.4 | 0.00 | 0.00 | 0.00 | 35 | 1014.2 |
| 20260506090222 | 21 | 270 | 1.6 | 6.4 | 0.00 | 0.00 | 0.00 | 37 | 1014.2 |